Time,TemperatureF,DewpointF,PressureIn,WindDirection,WindDirectionDegrees,WindSpeedMPH,WindSpeedGustMPH,Humidity,HourlyPrecipIn,Conditions,Clouds,dailyrainin,SoftwareType,DateUTC
2013-09-10 00:00:00,73.2,70.1,29.94,ESE,105,0.0,0.0,90,0.00,,SKC,0.08,VWS V14.01,2013-09-10 05:00:00,
2013-09-10 00:01:00,73.0,69.9,29.94,ESE,105,0.0,0.0,90,0.00,,SKC,0.00,VWS V14.01,2013-09-10 05:01:00,
2013-09-10 00:06:00,73.0,69.9,29.94,ESE,105,0.0,0.0,90,0.00,,SKC,0.00,VWS V14.01,2013-09-10 05:06:00,
2013-09-10 00:10:00,73.0,69.9,29.94,ESE,105,0.0,0.0,90,0.00,,SKC,0.00,VWS V14.01,2013-09-10 05:10:00,
2013-09-10 00:11:00,72.9,70.1,29.94,ESE,105,0.0,0.0,91,0.00,,SKC,0.00,VWS V14.01,2013-09-10 05:11:00,
2013-09-10 00:16:00,72.9,70.1,29.94,ESE,105,0.0,0.0,91,0.00,,SKC,0.00,VWS V14.01,2013-09-10 05:16:00,
2013-09-10 00:20:00,72.8,70.0,29.94,ESE,105,0.0,0.0,91,0.00,,SKC,0.00,VWS V14.01,2013-09-10 05:20:00,
2013-09-10 00:21:00,72.8,70.0,29.94,ESE,105,0.0,0.0,91,0.00,,SKC,0.00,VWS V14.01,2013-09-10 05:21:00,
2013-09-10 00:26:00,72.8,70.3,29.94,ESE,105,0.0,0.0,92,0.00,,SKC,0.00,VWS V14.01,2013-09-10 05:26:00,
2013-09-10 00:30:00,72.8,70.3,29.94,ESE,105,0.0,0.0,92,0.00,,SKC,0.00,VWS V14.01,2013-09-10 05:30:00,
2013-09-10 00:31:00,72.9,70.4,29.95,ESE,105,0.0,0.0,92,0.00,,SKC,0.00,VWS V14.01,2013-09-10 05:31:00,
2013-09-10 00:36:00,72.9,70.4,29.94,ESE,105,0.0,0.0,92,0.00,,SKC,0.00,VWS V14.01,2013-09-10 05:36:00,
2013-09-10 00:40:00,72.9,70.4,29.95,ESE,105,0.0,0.0,92,0.00,,SKC,0.00,VWS V14.01,2013-09-10 05:40:00,
2013-09-10 00:41:00,72.9,70.4,29.94,ESE,105,0.0,0.0,92,0.00,,SKC,0.00,VWS V14.01,2013-09-10 05:41:00,
2013-09-10 00:46:00,73.0,70.9,29.94,ESE,105,0.0,0.0,93,0.00,,SKC,0.00,VWS V14.01,2013-09-10 05:46:00,
2013-09-10 00:50:00,73.0,70.9,29.94,ESE,105,0.0,0.0,93,0.00,,SKC,0.00,VWS V14.01,2013-09-10 05:50:00,
2013-09-10 00:51:00,73.1,71.0,29.94,ESE,105,0.0,0.0,93,0.00,,SKC,0.00,VWS V14.01,2013-09-10 05:51:00,
2013-09-10 00:56:00,73.1,71.0,29.94,ESE,105,0.0,0.0,93,0.00,,SKC,0.00,VWS V14.01,2013-09-10 05:56:00,
2013-09-10 01:00:00,73.1,70.6,29.95,ESE,105,0.0,0.0,92,0.00,,SKC,0.00,VWS V14.01,2013-09-10 06:00:00,
2013-09-10 01:01:00,73.1,70.6,29.94,ESE,105,0.0,0.0,92,0.00,,SKC,0.00,VWS V14.01,2013-09-10 06:01:00,
2013-09-10 01:06:00,73.0,70.5,29.94,ESE,105,0.0,0.0,92,0.00,,SKC,0.00,VWS V14.01,2013-09-10 06:06:00,
2013-09-10 01:10:00,73.0,70.5,29.94,ESE,105,0.0,0.0,92,0.00,,SKC,0.00,VWS V14.01,2013-09-10 06:10:00,
2013-09-10 01:11:00,73.0,70.5,29.95,ESE,105,0.0,0.0,92,0.00,,SKC,0.00,VWS V14.01,2013-09-10 06:11:00,
2013-09-10 01:16:00,72.9,70.4,29.95,ESE,105,0.0,0.0,92,0.00,,SKC,0.00,VWS V14.01,2013-09-10 06:16:00,
2013-09-10 01:20:00,72.9,70.4,29.95,ESE,105,0.0,0.0,92,0.00,,SKC,0.00,VWS V14.01,2013-09-10 06:20:00,
2013-09-10 01:21:00,72.8,70.3,29.95,ESE,105,0.0,0.0,92,0.00,,SKC,0.00,VWS V14.01,2013-09-10 06:21:00,
2013-09-10 01:26:00,72.8,70.3,29.95,ESE,105,0.0,0.0,92,0.00,,SKC,0.00,VWS V14.01,2013-09-10 06:26:00,
2013-09-10 01:30:00,72.7,70.6,29.95,ESE,105,0.0,0.0,93,0.00,,SKC,0.00,VWS V14.01,2013-09-10 06:30:00,
2013-09-10 01:31:00,72.8,70.7,29.94,ESE,105,0.0,0.0,93,0.00,,SKC,0.00,VWS V14.01,2013-09-10 06:31:00,
2013-09-10 01:36:00,72.8,70.7,29.95,ESE,105,0.0,0.0,93,0.00,,SKC,0.00,VWS V14.01,2013-09-10 06:36:00,
2013-09-10 01:40:00,72.7,70.6,29.94,ESE,105,0.0,0.0,93,0.00,,SKC,0.00,VWS V14.01,2013-09-10 06:40:00,
2013-09-10 01:41:00,72.7,70.6,29.94,ESE,105,0.0,0.0,93,0.00,,SKC,0.00,VWS V14.01,2013-09-10 06:41:00,
2013-09-10 01:46:00,72.7,70.6,29.94,ESE,105,0.0,0.0,93,0.00,,SKC,0.00,VWS V14.01,2013-09-10 06:46:00,
2013-09-10 01:50:00,72.7,70.6,29.94,ESE,105,0.0,0.0,93,0.00,,SKC,0.00,VWS V14.01,2013-09-10 06:50:00,
2013-09-10 01:51:00,72.7,70.6,29.94,ESE,105,0.0,0.0,93,0.00,,SKC,0.00,VWS V14.01,2013-09-10 06:51:00,
2013-09-10 01:56:00,72.6,70.5,29.94,ESE,105,0.0,0.0,93,0.00,,SKC,0.00,VWS V14.01,2013-09-10 06:56:00,
2013-09-10 02:00:00,72.7,70.6,29.94,ESE,105,0.0,0.0,93,0.00,,SKC,0.00,VWS V14.01,2013-09-10 07:00:00,
2013-09-10 02:01:00,72.6,70.5,29.94,ESE,105,0.0,0.0,93,0.00,,SKC,0.00,VWS V14.01,2013-09-10 07:01:00,
2013-09-10 02:06:00,72.6,70.5,29.94,ESE,105,0.0,0.0,93,0.00,,SKC,0.00,VWS V14.01,2013-09-10 07:06:00,
2013-09-10 02:10:00,72.6,70.5,29.94,ESE,105,0.0,0.0,93,0.00,,SKC,0.00,VWS V14.01,2013-09-10 07:10:00,
2013-09-10 02:11:00,72.7,70.6,29.94,ESE,105,0.0,1.0,93,0.00,,SKC,0.00,VWS V14.01,2013-09-10 07:11:00,
2013-09-10 02:16:00,72.7,70.6,29.94,ESE,105,0.0,0.0,93,0.00,,SKC,0.00,VWS V14.01,2013-09-10 07:16:00,
2013-09-10 02:20:00,72.7,70.6,29.94,ESE,105,0.0,1.0,93,0.00,,SKC,0.00,VWS V14.01,2013-09-10 07:20:00,
2013-09-10 02:21:00,72.7,70.9,29.94,ESE,105,0.0,0.0,94,0.00,,SKC,0.00,VWS V14.01,2013-09-10 07:21:00,
2013-09-10 02:26:00,72.8,71.0,29.94,ESE,105,0.0,0.0,94,0.00,,SKC,0.00,VWS V14.01,2013-09-10 07:26:00,
2013-09-10 02:30:00,72.8,71.0,29.95,ESE,105,0.0,0.0,94,0.00,,SKC,0.00,VWS V14.01,2013-09-10 07:30:00,
2013-09-10 02:31:00,72.9,71.1,29.95,ESE,105,0.0,0.0,94,0.00,,SKC,0.00,VWS V14.01,2013-09-10 07:31:00,
2013-09-10 02:36:00,73.0,71.2,29.95,ESE,105,0.0,0.0,94,0.00,,SKC,0.00,VWS V14.01,2013-09-10 07:36:00,
2013-09-10 02:40:00,72.9,71.1,29.95,ESE,105,0.0,0.0,94,0.00,,SKC,0.00,VWS V14.01,2013-09-10 07:40:00,
2013-09-10 02:41:00,73.0,71.2,29.94,ESE,105,0.0,0.0,94,0.00,,SKC,0.00,VWS V14.01,2013-09-10 07:41:00,
2013-09-10 02:46:00,73.0,71.2,29.95,ESE,105,0.0,0.0,94,0.00,,SKC,0.00,VWS V14.01,2013-09-10 07:46:00,
2013-09-10 02:50:00,73.0,71.2,29.95,ESE,105,0.0,0.0,94,0.00,,SKC,0.00,VWS V14.01,2013-09-10 07:50:00,
2013-09-10 02:51:00,73.1,71.3,29.94,ESE,105,0.0,0.0,94,0.00,,SKC,0.00,VWS V14.01,2013-09-10 07:51:00,
2013-09-10 02:56:00,73.1,71.3,29.94,ESE,105,0.0,0.0,94,0.00,,SKC,0.00,VWS V14.01,2013-09-10 07:56:00,
2013-09-10 03:00:00,73.1,71.3,29.94,ESE,105,0.0,0.0,94,0.00,,SKC,0.00,VWS V14.01,2013-09-10 08:00:00,
2013-09-10 03:01:00,73.1,71.3,29.94,ESE,105,0.0,0.0,94,0.00,,SKC,0.00,VWS V14.01,2013-09-10 08:01:00,
2013-09-10 03:06:00,73.1,71.3,29.94,ESE,105,0.0,0.0,94,0.00,,SKC,0.00,VWS V14.01,2013-09-10 08:06:00,
2013-09-10 03:10:00,73.1,71.3,29.94,ESE,105,0.0,0.0,94,0.00,,SKC,0.00,VWS V14.01,2013-09-10 08:10:00,
2013-09-10 03:11:00,73.1,71.3,29.94,ESE,105,0.0,0.0,94,0.00,,SKC,0.00,VWS V14.01,2013-09-10 08:11:00,
2013-09-10 03:16:00,73.1,71.3,29.94,ESE,105,0.0,0.0,94,0.00,,SKC,0.00,VWS V14.01,2013-09-10 08:16:00,
2013-09-10 03:20:00,73.1,71.3,29.94,ESE,105,0.0,0.0,94,0.00,,SKC,0.00,VWS V14.01,2013-09-10 08:20:00,
2013-09-10 03:21:00,73.1,71.3,29.94,ESE,105,0.0,0.0,94,0.00,,SKC,0.00,VWS V14.01,2013-09-10 08:21:00,
2013-09-10 03:26:00,73.1,71.3,29.94,ESE,105,0.0,0.0,94,0.00,,SKC,0.00,VWS V14.01,2013-09-10 08:26:00,
2013-09-10 03:30:00,73.1,71.3,29.94,ESE,105,0.0,0.0,94,0.00,,SKC,0.00,VWS V14.01,2013-09-10 08:30:00,
2013-09-10 03:31:00,73.1,71.3,29.94,ESE,105,0.0,0.0,94,0.00,,SKC,0.00,VWS V14.01,2013-09-10 08:31:00,
2013-09-10 03:36:00,73.1,71.3,29.94,ESE,105,0.0,0.0,94,0.00,,SKC,0.00,VWS V14.01,2013-09-10 08:36:00,
2013-09-10 03:40:00,73.1,71.3,29.94,ESE,105,0.0,0.0,94,0.00,,SKC,0.00,VWS V14.01,2013-09-10 08:40:00,
2013-09-10 03:41:00,73.1,71.3,29.94,ESE,105,0.0,0.0,94,0.00,,SKC,0.00,VWS V14.01,2013-09-10 08:41:00,
2013-09-10 03:46:00,73.1,71.3,29.94,ESE,105,0.0,0.0,94,0.00,,SKC,0.00,VWS V14.01,2013-09-10 08:46:00,
2013-09-10 03:50:00,73.1,71.3,29.94,ESE,105,0.0,0.0,94,0.00,,SKC,0.00,VWS V14.01,2013-09-10 08:50:00,
2013-09-10 03:51:00,73.1,71.3,29.93,ESE,105,0.0,0.0,94,0.00,,SKC,0.00,VWS V14.01,2013-09-10 08:51:00,
2013-09-10 03:56:00,73.1,71.3,29.94,ESE,105,0.0,0.0,94,0.00,,SKC,0.00,VWS V14.01,2013-09-10 08:56:00,
2013-09-10 04:00:00,73.1,71.3,29.93,ESE,105,0.0,0.0,94,0.00,,SKC,0.00,VWS V14.01,2013-09-10 09:00:00,
2013-09-10 04:01:00,73.0,71.2,29.94,ESE,105,0.0,3.0,94,0.00,,SKC,0.00,VWS V14.01,2013-09-10 09:01:00,
2013-09-10 04:06:00,72.9,71.1,29.94,ESE,105,0.0,0.0,94,0.00,,SKC,0.00,VWS V14.01,2013-09-10 09:06:00,
2013-09-10 04:10:00,72.9,71.1,29.94,ESE,105,0.0,3.0,94,0.00,,SKC,0.00,VWS V14.01,2013-09-10 09:10:00,
2013-09-10 04:11:00,72.8,71.0,29.93,ESE,105,0.0,3.0,94,0.00,,SKC,0.00,VWS V14.01,2013-09-10 09:11:00,
2013-09-10 04:16:00,72.8,71.0,29.94,ESE,105,0.0,0.0,94,0.00,,SKC,0.00,VWS V14.01,2013-09-10 09:16:00,
2013-09-10 04:20:00,72.8,71.0,29.94,ESE,105,0.0,3.0,94,0.00,,SKC,0.00,VWS V14.01,2013-09-10 09:20:00,
2013-09-10 04:21:00,72.7,70.9,29.93,ESE,105,0.0,0.0,94,0.00,,SKC,0.00,VWS V14.01,2013-09-10 09:21:00,
2013-09-10 04:26:00,72.7,70.9,29.93,ESE,105,0.0,0.0,94,0.00,,SKC,0.00,VWS V14.01,2013-09-10 09:26:00,
2013-09-10 04:30:00,72.7,70.9,29.94,ESE,105,0.0,0.0,94,0.00,,SKC,0.00,VWS V14.01,2013-09-10 09:30:00,
2013-09-10 04:31:00,72.6,70.8,29.93,ESE,105,0.0,0.0,94,0.00,,SKC,0.00,VWS V14.01,2013-09-10 09:31:00,
2013-09-10 04:36:00,72.5,70.7,29.94,ESE,105,0.0,0.0,94,0.00,,SKC,0.00,VWS V14.01,2013-09-10 09:36:00,
2013-09-10 04:40:00,72.5,70.7,29.94,ESE,105,0.0,0.0,94,0.00,,SKC,0.00,VWS V14.01,2013-09-10 09:40:00,
2013-09-10 04:41:00,72.5,70.7,29.94,ESE,105,0.0,0.0,94,0.00,,SKC,0.00,VWS V14.01,2013-09-10 09:41:00,
2013-09-10 04:46:00,72.4,70.6,29.94,ESE,105,0.0,0.0,94,0.00,,SKC,0.00,VWS V14.01,2013-09-10 09:46:00,
2013-09-10 04:50:00,72.5,70.7,29.93,ESE,105,0.0,0.0,94,0.00,,SKC,0.00,VWS V14.01,2013-09-10 09:50:00,
2013-09-10 04:51:00,72.5,70.7,29.94,ESE,105,0.0,3.0,94,0.00,,SKC,0.00,VWS V14.01,2013-09-10 09:51:00,
2013-09-10 04:56:00,72.4,70.6,29.94,ESE,105,0.0,0.0,94,0.00,,SKC,0.00,VWS V14.01,2013-09-10 09:56:00,
2013-09-10 05:00:00,72.4,70.6,29.94,ESE,105,0.0,3.0,94,0.00,,SKC,0.00,VWS V14.01,2013-09-10 10:00:00,
2013-09-10 05:01:00,72.4,70.6,29.94,ESE,105,0.0,0.0,94,0.00,,SKC,0.00,VWS V14.01,2013-09-10 10:01:00,
2013-09-10 05:06:00,72.3,70.5,29.94,ESE,105,0.0,0.0,94,0.00,,SKC,0.00,VWS V14.01,2013-09-10 10:06:00,
2013-09-10 05:10:00,72.4,70.6,29.94,ESE,105,0.0,3.0,94,0.00,,SKC,0.00,VWS V14.01,2013-09-10 10:10:00,
2013-09-10 05:11:00,72.3,70.5,29.94,ESE,105,0.0,0.0,94,0.00,,SKC,0.00,VWS V14.01,2013-09-10 10:11:00,
2013-09-10 05:16:00,72.4,70.9,29.94,ESE,105,0.0,0.0,95,0.00,,SKC,0.00,VWS V14.01,2013-09-10 10:16:00,
2013-09-10 05:20:00,72.3,70.8,29.94,ESE,105,0.0,4.0,95,0.00,,SKC,0.00,VWS V14.01,2013-09-10 10:20:00,
2013-09-10 05:21:00,72.3,70.8,29.94,ESE,105,0.0,0.0,95,0.00,,SKC,0.00,VWS V14.01,2013-09-10 10:21:00,
2013-09-10 05:26:00,72.3,70.8,29.94,ESE,105,0.0,0.0,95,0.00,,SKC,0.00,VWS V14.01,2013-09-10 10:26:00,
2013-09-10 05:30:00,72.3,70.8,29.94,ESE,105,0.0,0.0,95,0.00,,SKC,0.00,VWS V14.01,2013-09-10 10:30:00,
2013-09-10 05:31:00,72.2,70.7,29.94,ESE,105,0.0,2.0,95,0.00,,SKC,0.00,VWS V14.01,2013-09-10 10:31:00,
2013-09-10 05:36:00,72.2,70.7,29.93,ESE,105,0.0,2.0,95,0.00,,SKC,0.00,VWS V14.01,2013-09-10 10:36:00,
2013-09-10 05:40:00,72.2,70.7,29.93,ESE,105,0.0,3.0,95,0.00,,SKC,0.00,VWS V14.01,2013-09-10 10:40:00,
2013-09-10 05:41:00,72.3,70.8,29.94,ESE,105,0.0,2.0,95,0.00,,SKC,0.00,VWS V14.01,2013-09-10 10:41:00,
2013-09-10 05:46:00,72.3,70.8,29.93,ESE,105,0.0,0.0,95,0.00,,SKC,0.00,VWS V14.01,2013-09-10 10:46:00,
2013-09-10 05:50:00,72.3,70.8,29.93,ESE,105,0.0,2.0,95,0.00,,SKC,0.00,VWS V14.01,2013-09-10 10:50:00,
2013-09-10 05:51:00,72.2,70.7,29.94,ESE,105,0.0,1.0,95,0.00,,SKC,0.00,VWS V14.01,2013-09-10 10:51:00,
2013-09-10 05:56:00,72.1,70.6,29.94,ESE,105,0.0,0.0,95,0.00,,SKC,0.00,VWS V14.01,2013-09-10 10:56:00,
2013-09-10 06:00:00,72.2,70.7,29.94,ESE,105,0.0,2.0,95,0.00,,SKC,0.00,VWS V14.01,2013-09-10 11:00:00,
2013-09-10 06:01:00,72.1,70.6,29.94,ESE,105,0.0,2.0,95,0.00,,SKC,0.00,VWS V14.01,2013-09-10 11:01:00,
2013-09-10 06:06:00,72.1,70.6,29.94,ESE,105,0.0,0.0,95,0.00,,SKC,0.00,VWS V14.01,2013-09-10 11:06:00,
2013-09-10 06:10:00,72.1,70.6,29.94,ESE,105,0.0,4.0,95,0.00,,SKC,0.00,VWS V14.01,2013-09-10 11:10:00,
2013-09-10 06:11:00,72.1,70.6,29.94,ESE,105,0.0,0.0,95,0.00,,SKC,0.00,VWS V14.01,2013-09-10 11:11:00,
2013-09-10 06:16:00,72.1,70.6,29.94,ESE,105,0.0,0.0,95,0.00,,SKC,0.00,VWS V14.01,2013-09-10 11:16:00,
2013-09-10 06:20:00,72.1,70.6,29.94,ESE,105,0.0,0.0,95,0.00,,SKC,0.00,VWS V14.01,2013-09-10 11:20:00,
2013-09-10 06:21:00,72.2,70.7,29.95,ESE,105,0.0,1.0,95,0.00,,SKC,0.00,VWS V14.01,2013-09-10 11:21:00,
2013-09-10 06:26:00,72.1,70.6,29.94,ESE,105,0.0,0.0,95,0.00,,SKC,0.00,VWS V14.01,2013-09-10 11:26:00,
2013-09-10 06:30:00,72.1,70.6,29.95,ESE,105,0.0,1.0,95,0.00,,SKC,0.00,VWS V14.01,2013-09-10 11:30:00,
2013-09-10 06:31:00,72.2,70.7,29.95,ESE,105,0.0,0.0,95,0.00,,SKC,0.00,VWS V14.01,2013-09-10 11:31:00,
2013-09-10 06:36:00,72.1,70.6,29.95,ESE,105,0.0,0.0,95,0.00,,SKC,0.00,VWS V14.01,2013-09-10 11:36:00,
2013-09-10 06:40:00,72.2,70.7,29.95,ESE,105,0.0,0.0,95,0.00,,SKC,0.00,VWS V14.01,2013-09-10 11:40:00,
2013-09-10 06:41:00,72.0,70.5,29.95,ESE,105,0.0,0.0,95,0.00,,SKC,0.00,VWS V14.01,2013-09-10 11:41:00,
2013-09-10 06:46:00,71.9,70.4,29.95,ESE,105,0.0,0.0,95,0.00,,SKC,0.00,VWS V14.01,2013-09-10 11:46:00,
2013-09-10 06:50:00,71.9,70.4,29.95,ESE,105,0.0,0.0,95,0.00,,SKC,0.00,VWS V14.01,2013-09-10 11:50:00,
2013-09-10 06:51:00,71.9,70.4,29.95,ESE,105,0.0,1.0,95,0.00,,SKC,0.00,VWS V14.01,2013-09-10 11:51:00,
2013-09-10 06:56:00,71.9,70.4,29.95,ESE,105,0.0,0.0,95,0.00,,SKC,0.00,VWS V14.01,2013-09-10 11:56:00,
2013-09-10 07:00:00,71.9,70.4,29.95,ESE,105,0.0,1.0,95,0.00,,SKC,0.00,VWS V14.01,2013-09-10 12:00:00,
2013-09-10 07:01:00,71.8,70.3,29.95,ESE,105,0.0,0.0,95,0.00,,SKC,0.00,VWS V14.01,2013-09-10 12:01:00,
2013-09-10 07:06:00,71.8,70.3,29.95,ESE,105,2.0,3.0,95,0.00,,SKC,0.00,VWS V14.01,2013-09-10 12:06:00,
2013-09-10 07:10:00,71.8,70.3,29.96,ESE,105,0.0,0.0,95,0.00,,SKC,0.00,VWS V14.01,2013-09-10 12:10:00,
2013-09-10 07:11:00,71.8,70.3,29.96,ESE,105,0.0,3.0,95,0.01,,SKC,0.01,VWS V14.01,2013-09-10 12:11:00,
2013-09-10 07:16:00,71.8,70.3,29.96,ESE,105,0.0,0.0,95,0.01,,SKC,0.01,VWS V14.01,2013-09-10 12:16:00,
2013-09-10 07:20:00,71.8,70.3,29.96,ESE,105,0.0,3.0,95,0.01,,SKC,0.01,VWS V14.01,2013-09-10 12:20:00,
2013-09-10 07:21:00,71.8,70.3,29.96,ESE,105,0.0,0.0,95,0.01,,SKC,0.01,VWS V14.01,2013-09-10 12:21:00,
2013-09-10 07:26:00,71.9,70.4,29.96,ESE,105,0.0,0.0,95,0.01,,SKC,0.01,VWS V14.01,2013-09-10 12:26:00,
2013-09-10 07:30:00,71.9,70.4,29.97,ESE,105,0.0,1.0,95,0.01,,SKC,0.01,VWS V14.01,2013-09-10 12:30:00,
2013-09-10 07:31:00,72.0,70.5,29.96,ESE,105,0.0,7.0,95,0.01,,SKC,0.01,VWS V14.01,2013-09-10 12:31:00,
2013-09-10 07:36:00,72.1,70.6,29.96,ESE,105,0.0,0.0,95,0.01,,SKC,0.01,VWS V14.01,2013-09-10 12:36:00,
2013-09-10 07:40:00,72.0,70.5,29.96,ESE,105,0.0,7.0,95,0.01,,SKC,0.01,VWS V14.01,2013-09-10 12:40:00,
2013-09-10 07:41:00,72.1,70.6,29.96,ESE,105,2.0,5.0,95,0.01,,SKC,0.01,VWS V14.01,2013-09-10 12:41:00,
2013-09-10 07:46:00,72.2,70.7,29.97,ESE,105,0.0,0.0,95,0.01,,SKC,0.01,VWS V14.01,2013-09-10 12:46:00,
2013-09-10 07:50:00,72.2,70.7,29.97,ESE,105,0.0,5.0,95,0.01,,SKC,0.01,VWS V14.01,2013-09-10 12:50:00,
2013-09-10 07:51:00,72.3,71.1,29.97,ESE,105,0.0,0.0,96,0.01,,SKC,0.01,VWS V14.01,2013-09-10 12:51:00,
2013-09-10 07:56:00,72.5,71.3,29.97,ESE,105,0.0,0.0,96,0.01,,SKC,0.01,VWS V14.01,2013-09-10 12:56:00,
2013-09-10 08:00:00,72.5,71.3,29.97,ESE,105,0.0,0.0,96,0.01,,SKC,0.01,VWS V14.01,2013-09-10 13:00:00,
2013-09-10 08:01:00,72.7,71.5,29.97,ESE,105,0.0,3.0,96,0.01,,SKC,0.01,VWS V14.01,2013-09-10 13:01:00,
2013-09-10 08:06:00,72.9,71.7,29.98,ESE,105,0.0,0.0,96,0.01,,SKC,0.01,VWS V14.01,2013-09-10 13:06:00,
2013-09-10 08:10:00,72.8,71.6,29.97,ESE,105,0.0,3.0,96,0.01,,SKC,0.01,VWS V14.01,2013-09-10 13:10:00,
2013-09-10 08:11:00,73.0,71.8,29.98,ESE,105,0.0,1.0,96,0.01,,SKC,0.01,VWS V14.01,2013-09-10 13:11:00,
2013-09-10 08:16:00,73.1,71.9,29.98,ESE,105,0.0,0.0,96,0.00,,SKC,0.01,VWS V14.01,2013-09-10 13:16:00,
2013-09-10 08:20:00,73.1,71.9,29.98,ESE,105,0.0,5.0,96,0.01,,SKC,0.01,VWS V14.01,2013-09-10 13:20:00,
2013-09-10 08:21:00,73.2,72.0,29.98,ESE,105,0.0,2.0,96,0.00,,SKC,0.01,VWS V14.01,2013-09-10 13:21:00,
2013-09-10 08:26:00,73.4,72.2,29.98,ESE,105,4.0,4.0,96,0.00,,SKC,0.01,VWS V14.01,2013-09-10 13:26:00,
2013-09-10 08:30:00,73.4,72.2,29.98,ESE,105,4.0,5.0,96,0.00,,SKC,0.01,VWS V14.01,2013-09-10 13:30:00,
2013-09-10 08:31:00,73.7,72.5,29.98,ESE,105,0.0,4.0,96,0.00,,SKC,0.01,VWS V14.01,2013-09-10 13:31:00,
2013-09-10 08:36:00,73.8,72.6,29.98,ESE,105,0.0,0.0,96,0.00,,SKC,0.01,VWS V14.01,2013-09-10 13:36:00,
2013-09-10 08:40:00,73.8,72.6,29.98,ESE,105,0.0,4.0,96,0.00,,SKC,0.01,VWS V14.01,2013-09-10 13:40:00,
2013-09-10 08:41:00,73.9,72.7,29.99,ESE,105,1.0,7.0,96,0.00,,SKC,0.01,VWS V14.01,2013-09-10 13:41:00,
2013-09-10 08:46:00,73.9,72.4,29.99,ESE,105,2.0,2.0,95,0.00,,SKC,0.01,VWS V14.01,2013-09-10 13:46:00,
2013-09-10 08:50:00,73.9,72.4,29.99,ESE,105,0.0,7.0,95,0.00,,SKC,0.01,VWS V14.01,2013-09-10 13:50:00,
2013-09-10 08:51:00,74.1,72.6,29.99,ESE,105,0.0,2.0,95,0.00,,SKC,0.01,VWS V14.01,2013-09-10 13:51:00,
2013-09-10 08:56:00,74.2,72.7,29.99,ESE,105,0.0,0.0,95,0.00,,SKC,0.01,VWS V14.01,2013-09-10 13:56:00,
2013-09-10 09:00:00,74.2,72.7,29.99,ESE,105,0.0,5.0,95,0.00,,SKC,0.01,VWS V14.01,2013-09-10 14:00:00,
2013-09-10 09:01:00,74.6,73.4,29.99,ESE,105,1.0,4.0,96,0.00,,SKC,0.01,VWS V14.01,2013-09-10 14:01:00,
2013-09-10 09:06:00,75.1,73.9,29.99,ESE,105,0.0,0.0,96,0.00,,SKC,0.01,VWS V14.01,2013-09-10 14:06:00,
2013-09-10 09:10:00,75.1,73.9,29.99,ESE,105,0.0,7.0,96,0.00,,SKC,0.01,VWS V14.01,2013-09-10 14:10:00,
2013-09-10 09:11:00,75.7,74.2,29.99,ESE,105,0.0,5.0,95,0.00,,SKC,0.01,VWS V14.01,2013-09-10 14:11:00,
2013-09-10 09:16:00,75.9,73.7,29.99,ESE,105,8.0,8.0,93,0.00,,SKC,0.01,VWS V14.01,2013-09-10 14:16:00,
2013-09-10 09:20:00,75.9,73.7,29.99,ESE,106,1.0,8.0,93,0.00,,SKC,0.01,VWS V14.01,2013-09-10 14:20:00,
2013-09-10 09:21:00,76.3,73.8,29.99,ESE,105,0.0,8.0,92,0.00,,SKC,0.01,VWS V14.01,2013-09-10 14:21:00,
2013-09-10 09:26:00,76.9,74.4,29.99,ESE,105,0.0,0.0,92,0.00,,SKC,0.01,VWS V14.01,2013-09-10 14:26:00,
2013-09-10 09:30:00,76.8,74.3,29.99,ESE,105,0.0,8.0,92,0.00,,SKC,0.01,VWS V14.01,2013-09-10 14:30:00,
2013-09-10 09:31:00,77.4,74.2,29.99,ESE,105,0.0,1.0,90,0.00,,SKC,0.01,VWS V14.01,2013-09-10 14:31:00,
2013-09-10 09:36:00,78.1,74.3,30.00,East,100,6.0,6.0,88,0.00,,SKC,0.01,VWS V14.01,2013-09-10 14:36:00,
2013-09-10 09:40:00,78.0,74.2,30.00,ESE,103,0.0,7.0,88,0.00,,SKC,0.01,VWS V14.01,2013-09-10 14:40:00,
2013-09-10 09:41:00,78.7,74.2,30.00,ESE,105,3.0,10.0,86,0.00,,SKC,0.01,VWS V14.01,2013-09-10 14:41:00,
2013-09-10 09:46:00,79.4,74.2,30.00,ESE,104,0.0,4.0,84,0.00,,SKC,0.01,VWS V14.01,2013-09-10 14:46:00,
2013-09-10 09:50:00,79.4,74.5,30.00,ESE,104,4.0,10.0,85,0.00,,SKC,0.01,VWS V14.01,2013-09-10 14:50:00,
2013-09-10 09:51:00,80.3,74.7,29.99,ESE,102,0.0,7.0,83,0.00,,SKC,0.01,VWS V14.01,2013-09-10 14:51:00,
2013-09-10 09:56:00,81.0,74.6,30.00,East,101,1.0,5.0,81,0.00,,SKC,0.01,VWS V14.01,2013-09-10 14:56:00,
2013-09-10 10:00:00,81.0,74.6,30.00,ESE,103,0.0,7.0,81,0.00,,SKC,0.01,VWS V14.01,2013-09-10 15:00:00,
2013-09-10 10:01:00,81.7,74.6,30.00,East,101,0.0,8.0,79,0.00,,SKC,0.01,VWS V14.01,2013-09-10 15:01:00,
2013-09-10 10:06:00,82.4,74.9,30.00,ESE,111,5.0,11.0,78,0.00,,SKC,0.01,VWS V14.01,2013-09-10 15:06:00,
2013-09-10 10:10:00,82.4,74.9,30.00,East,101,7.0,8.0,78,0.00,,SKC,0.01,VWS V14.01,2013-09-10 15:10:00,
2013-09-10 10:11:00,82.7,74.4,30.00,ESE,106,0.0,11.0,76,0.00,,SKC,0.01,VWS V14.01,2013-09-10 15:11:00,
2013-09-10 10:16:00,82.5,74.6,30.00,East,96,0.0,7.0,77,0.00,,SKC,0.01,VWS V14.01,2013-09-10 15:16:00,
2013-09-10 10:20:00,82.5,74.2,30.00,East,96,0.0,11.0,76,0.00,,SKC,0.01,VWS V14.01,2013-09-10 15:20:00,
2013-09-10 10:21:00,82.1,73.8,30.00,ESE,104,0.0,11.0,76,0.00,,SKC,0.01,VWS V14.01,2013-09-10 15:21:00,
2013-09-10 10:26:00,81.8,74.3,30.00,ESE,104,3.0,3.0,78,0.00,,SKC,0.01,VWS V14.01,2013-09-10 15:26:00,
2013-09-10 10:30:00,81.8,74.3,30.00,ESE,104,0.0,11.0,78,0.00,,SKC,0.01,VWS V14.01,2013-09-10 15:30:00,
2013-09-10 10:31:00,81.8,73.9,30.00,ESE,105,0.0,8.0,77,0.00,,SKC,0.01,VWS V14.01,2013-09-10 15:31:00,
2013-09-10 10:36:00,81.8,73.9,30.00,ESE,103,1.0,1.0,77,0.00,,SKC,0.01,VWS V14.01,2013-09-10 15:36:00,
2013-09-10 10:40:00,81.8,73.9,30.01,ESE,103,0.0,8.0,77,0.00,,SKC,0.01,VWS V14.01,2013-09-10 15:40:00,
2013-09-10 10:41:00,81.7,73.8,30.00,ESE,105,0.0,9.0,77,0.00,,SKC,0.01,VWS V14.01,2013-09-10 15:41:00,
2013-09-10 10:46:00,81.7,73.8,30.00,ESE,107,0.0,0.0,77,0.00,,SKC,0.01,VWS V14.01,2013-09-10 15:46:00,
2013-09-10 10:50:00,81.7,73.8,30.00,ESE,107,0.0,9.0,77,0.00,,SKC,0.01,VWS V14.01,2013-09-10 15:50:00,
2013-09-10 10:51:00,82.0,74.5,30.00,ESE,105,0.0,8.0,78,0.00,,SKC,0.01,VWS V14.01,2013-09-10 15:51:00,
2013-09-10 10:56:00,82.5,73.8,30.00,ESE,108,3.0,4.0,75,0.00,,SKC,0.01,VWS V14.01,2013-09-10 15:56:00,
2013-09-10 11:00:00,82.4,73.7,30.00,ESE,108,0.0,8.0,75,0.00,,SKC,0.01,VWS V14.01,2013-09-10 16:00:00,
2013-09-10 11:01:00,82.8,73.7,30.00,ESE,114,5.0,10.0,74,0.00,,SKC,0.01,VWS V14.01,2013-09-10 16:01:00,
2013-09-10 11:06:00,83.0,73.9,30.00,ESE,111,0.0,1.0,74,0.00,,SKC,0.01,VWS V14.01,2013-09-10 16:06:00,
2013-09-10 11:10:00,82.9,73.8,30.00,ESE,111,0.0,10.0,74,0.00,,SKC,0.01,VWS V14.01,2013-09-10 16:10:00,
2013-09-10 11:11:00,83.4,73.8,30.00,East,101,1.0,6.0,73,0.00,,SKC,0.01,VWS V14.01,2013-09-10 16:11:00,
2013-09-10 11:16:00,83.8,74.2,30.01,ESE,103,0.0,0.0,73,0.00,,SKC,0.01,VWS V14.01,2013-09-10 16:16:00,
2013-09-10 11:20:00,83.8,74.2,30.00,ESE,103,0.0,6.0,73,0.00,,SKC,0.01,VWS V14.01,2013-09-10 16:20:00,
2013-09-10 11:21:00,84.3,73.9,30.01,East,98,0.0,6.0,71,0.00,,SKC,0.01,VWS V14.01,2013-09-10 16:21:00,
2013-09-10 11:26:00,84.4,73.1,30.01,East,98,2.0,3.0,69,0.00,,SKC,0.01,VWS V14.01,2013-09-10 16:26:00,
2013-09-10 11:30:00,84.4,73.1,30.01,East,98,0.0,6.0,69,0.00,,SKC,0.01,VWS V14.01,2013-09-10 16:30:00,
2013-09-10 11:31:00,85.0,73.7,30.01,East,98,0.0,6.0,69,0.00,,SKC,0.01,VWS V14.01,2013-09-10 16:31:00,
2013-09-10 11:36:00,85.5,74.2,30.01,East,99,0.0,0.0,69,0.00,,SKC,0.01,VWS V14.01,2013-09-10 16:36:00,
2013-09-10 11:40:00,85.4,74.1,30.01,East,99,0.0,6.0,69,0.00,,SKC,0.01,VWS V14.01,2013-09-10 16:40:00,
2013-09-10 11:41:00,86.1,73.4,30.00,East,101,0.0,7.0,66,0.00,,SKC,0.01,VWS V14.01,2013-09-10 16:41:00,
2013-09-10 11:46:00,86.6,73.4,30.00,ESE,109,0.0,0.0,65,0.00,,SKC,0.01,VWS V14.01,2013-09-10 16:46:00,
2013-09-10 11:50:00,86.5,73.3,30.00,ESE,109,0.0,8.0,65,0.00,,SKC,0.01,VWS V14.01,2013-09-10 16:50:00,
2013-09-10 11:51:00,86.9,72.3,30.00,ESE,105,0.0,5.0,62,0.00,,SKC,0.01,VWS V14.01,2013-09-10 16:51:00,
2013-09-10 11:56:00,87.0,72.4,30.01,ESE,104,2.0,5.0,62,0.00,,SKC,0.01,VWS V14.01,2013-09-10 16:56:00,
2013-09-10 12:00:00,87.0,72.9,30.00,ESE,105,1.0,7.0,63,0.00,,SKC,0.01,VWS V14.01,2013-09-10 17:00:00,
2013-09-10 12:01:00,87.2,72.6,30.00,ESE,113,0.0,11.0,62,0.00,,SKC,0.01,VWS V14.01,2013-09-10 17:01:00,
2013-09-10 12:06:00,87.8,72.2,30.00,ESE,110,0.0,0.0,60,0.00,,SKC,0.01,VWS V14.01,2013-09-10 17:06:00,
2013-09-10 12:10:00,87.8,72.2,30.00,ESE,110,0.0,11.0,60,0.00,,SKC,0.01,VWS V14.01,2013-09-10 17:10:00,
2013-09-10 12:11:00,88.2,73.1,30.00,SSE,151,2.0,11.0,61,0.00,,SKC,0.01,VWS V14.01,2013-09-10 17:11:00,
2013-09-10 12:16:00,88.2,73.1,30.00,SE,135,0.0,3.0,61,0.00,,SKC,0.01,VWS V14.01,2013-09-10 17:16:00,
2013-09-10 12:20:00,88.2,73.1,30.00,SE,135,2.0,11.0,61,0.00,,SKC,0.01,VWS V14.01,2013-09-10 17:20:00,
2013-09-10 12:21:00,88.0,72.9,30.00,SE,130,1.0,5.0,61,0.00,,SKC,0.01,VWS V14.01,2013-09-10 17:21:00,
2013-09-10 12:26:00,87.5,72.4,30.00,ESE,116,5.0,7.0,61,0.00,,SKC,0.01,VWS V14.01,2013-09-10 17:26:00,
2013-09-10 12:30:00,87.6,72.5,30.00,ESE,118,1.0,9.0,61,0.00,,SKC,0.01,VWS V14.01,2013-09-10 17:30:00,
2013-09-10 12:31:00,87.5,72.9,30.00,ESE,112,0.0,10.0,62,0.00,,SKC,0.01,VWS V14.01,2013-09-10 17:31:00,
2013-09-10 12:36:00,87.9,72.8,30.00,ESE,111,0.0,0.0,61,0.00,,SKC,0.01,VWS V14.01,2013-09-10 17:36:00,
2013-09-10 12:40:00,87.9,72.8,30.00,ESE,111,0.0,10.0,61,0.00,,SKC,0.01,VWS V14.01,2013-09-10 17:40:00,
2013-09-10 12:41:00,88.0,72.4,30.00,ESE,105,5.0,9.0,60,0.00,,SKC,0.01,VWS V14.01,2013-09-10 17:41:00,
2013-09-10 12:46:00,87.9,73.3,29.99,East,94,1.0,8.0,62,0.00,,SKC,0.01,VWS V14.01,2013-09-10 17:46:00,
2013-09-10 12:50:00,87.9,73.3,29.99,East,91,2.0,10.0,62,0.00,,SKC,0.01,VWS V14.01,2013-09-10 17:50:00,
2013-09-10 12:51:00,88.5,72.3,29.99,ESE,105,0.0,10.0,59,0.00,,SKC,0.01,VWS V14.01,2013-09-10 17:51:00,
2013-09-10 12:56:00,89.0,72.8,29.99,ESE,109,0.0,5.0,59,0.00,,SKC,0.01,VWS V14.01,2013-09-10 17:56:00,
2013-09-10 13:00:00,89.0,72.8,29.99,ESE,109,5.0,10.0,59,0.00,,SKC,0.01,VWS V14.01,2013-09-10 18:00:00,
2013-09-10 13:01:00,89.5,72.8,29.99,ESE,103,0.0,9.0,58,0.00,,SKC,0.01,VWS V14.01,2013-09-10 18:01:00,
2013-09-10 13:06:00,89.9,72.6,29.98,ESE,106,0.0,4.0,57,0.00,,SKC,0.01,VWS V14.01,2013-09-10 18:06:00,
2013-09-10 13:10:00,89.8,73.1,29.99,ESE,106,2.0,9.0,58,0.00,,SKC,0.01,VWS V14.01,2013-09-10 18:10:00,
2013-09-10 13:11:00,89.9,72.1,29.98,ESE,104,1.0,12.0,56,0.00,,SKC,0.01,VWS V14.01,2013-09-10 18:11:00,
2013-09-10 13:16:00,89.8,72.6,29.98,ESE,102,0.0,5.0,57,0.00,,SKC,0.01,VWS V14.01,2013-09-10 18:16:00,
2013-09-10 13:20:00,89.8,72.6,29.98,ESE,102,2.0,12.0,57,0.00,,SKC,0.01,VWS V14.01,2013-09-10 18:20:00,
2013-09-10 13:21:00,90.0,71.7,29.98,ESE,103,0.0,5.0,55,0.00,,SKC,0.01,VWS V14.01,2013-09-10 18:21:00,
2013-09-10 13:26:00,90.1,71.8,29.98,ESE,109,0.0,2.0,55,0.00,,SKC,0.01,VWS V14.01,2013-09-10 18:26:00,
2013-09-10 13:30:00,90.1,71.8,29.98,ESE,109,0.0,5.0,55,0.00,,SKC,0.01,VWS V14.01,2013-09-10 18:30:00,
2013-09-10 13:31:00,90.6,71.7,29.98,SE,132,0.0,8.0,54,0.00,,SKC,0.01,VWS V14.01,2013-09-10 18:31:00,
2013-09-10 13:36:00,91.3,72.3,29.98,SSE,159,0.0,5.0,54,0.00,,SKC,0.01,VWS V14.01,2013-09-10 18:36:00,
2013-09-10 13:40:00,91.2,72.2,29.98,SSE,159,1.0,11.0,54,0.00,,SKC,0.01,VWS V14.01,2013-09-10 18:40:00,
2013-09-10 13:41:00,91.7,72.7,29.98,SSE,148,0.0,7.0,54,0.00,,SKC,0.01,VWS V14.01,2013-09-10 18:41:00,
2013-09-10 13:46:00,91.6,72.1,29.98,SE,143,0.0,1.0,53,0.00,,SKC,0.01,VWS V14.01,2013-09-10 18:46:00,
2013-09-10 13:50:00,91.6,72.1,29.98,SE,143,0.0,7.0,53,0.00,,SKC,0.01,VWS V14.01,2013-09-10 18:50:00,
2013-09-10 13:51:00,91.7,72.7,29.97,SE,141,0.0,6.0,54,0.00,,SKC,0.01,VWS V14.01,2013-09-10 18:51:00,
2013-09-10 13:56:00,92.0,73.0,29.97,East,98,5.0,5.0,54,0.00,,SKC,0.01,VWS V14.01,2013-09-10 18:56:00,
2013-09-10 14:00:00,92.4,71.7,29.97,ESE,109,2.0,6.0,51,0.00,,SKC,0.01,VWS V14.01,2013-09-10 19:00:00,
2013-09-10 14:05:00,92.8,72.6,29.97,ESE,121,0.0,0.0,52,0.00,,SKC,0.01,VWS V14.01,2013-09-10 19:05:00,
2013-09-10 14:10:00,93.1,72.9,29.96,ESE,116,0.0,8.0,52,0.00,,SKC,0.01,VWS V14.01,2013-09-10 19:10:00,
2013-09-10 14:15:00,92.9,70.9,29.96,ESE,107,0.0,4.0,49,0.00,,SKC,0.01,VWS V14.01,2013-09-10 19:15:00,
2013-09-10 14:20:00,92.2,71.5,29.96,ESE,118,0.0,8.0,51,0.00,,SKC,0.01,VWS V14.01,2013-09-10 19:20:00,
2013-09-10 14:25:00,91.5,72.0,29.96,SE,126,0.0,0.0,53,0.00,,SKC,0.01,VWS V14.01,2013-09-10 19:25:00,
2013-09-10 14:30:00,91.5,72.5,29.96,SE,128,0.0,6.0,54,0.00,,SKC,0.01,VWS V14.01,2013-09-10 19:30:00,
2013-09-10 14:35:00,91.8,71.7,29.96,SE,134,7.0,7.0,52,0.00,,SKC,0.01,VWS V14.01,2013-09-10 19:35:00,
2013-09-10 14:40:00,91.1,75.3,29.95,South,178,4.0,13.0,60,0.00,,SKC,0.01,VWS V14.01,2013-09-10 19:40:00,
2013-09-10 14:45:00,88.6,74.4,29.96,SW,225,4.0,5.0,63,0.00,,SKC,0.01,VWS V14.01,2013-09-10 19:45:00,
2013-09-10 14:50:00,86.8,74.1,29.95,SSW,212,0.0,8.0,66,0.00,,SKC,0.01,VWS V14.01,2013-09-10 19:50:00,
2013-09-10 14:55:00,85.7,73.5,29.96,SW,215,4.0,4.0,67,0.00,,SKC,0.01,VWS V14.01,2013-09-10 19:55:00,
2013-09-10 15:00:00,85.1,73.4,29.95,SW,218,0.0,10.0,68,0.00,,SKC,0.01,VWS V14.01,2013-09-10 20:00:00,
2013-09-10 15:05:00,84.4,73.1,29.95,SW,218,0.0,0.0,69,0.00,,SKC,0.01,VWS V14.01,2013-09-10 20:05:00,
2013-09-10 15:10:00,84.0,73.2,29.96,SW,218,3.0,5.0,70,0.00,,SKC,0.01,VWS V14.01,2013-09-10 20:10:00,
2013-09-10 15:15:00,83.7,73.3,29.96,SSW,211,0.0,0.0,71,0.00,,SKC,0.01,VWS V14.01,2013-09-10 20:15:00,
2013-09-10 15:20:00,83.6,73.6,29.96,SSW,209,0.0,6.0,72,0.00,,SKC,0.01,VWS V14.01,2013-09-10 20:20:00,
2013-09-10 15:25:00,83.9,74.3,29.96,South,169,2.0,8.0,73,0.00,,SKC,0.01,VWS V14.01,2013-09-10 20:25:00,
2013-09-10 15:30:00,84.4,74.4,29.96,SSE,167,3.0,10.0,72,0.00,,SKC,0.01,VWS V14.01,2013-09-10 20:30:00,
2013-09-10 15:35:00,84.7,74.3,29.96,SSE,157,7.0,15.0,71,0.00,,SKC,0.01,VWS V14.01,2013-09-10 20:35:00,
2013-09-10 15:40:00,84.8,73.9,29.96,SSE,161,9.0,10.0,70,0.00,,SKC,0.01,VWS V14.01,2013-09-10 20:40:00,
2013-09-10 15:45:00,84.7,72.5,29.95,SE,138,3.0,11.0,67,0.00,,SKC,0.01,VWS V14.01,2013-09-10 20:45:00,
2013-09-10 15:50:00,84.6,72.9,29.95,South,169,2.0,9.0,68,0.00,,SKC,0.01,VWS V14.01,2013-09-10 20:50:00,
2013-09-10 15:55:00,84.9,72.3,29.95,SSE,162,4.0,9.0,66,0.00,,SKC,0.01,VWS V14.01,2013-09-10 20:55:00,
2013-09-10 16:00:00,85.2,72.6,29.95,SSE,167,6.0,10.0,66,0.00,,SKC,0.01,VWS V14.01,2013-09-10 21:00:00,
2013-09-10 16:05:00,85.3,72.7,29.96,SSE,166,4.0,11.0,66,0.00,,SKC,0.01,VWS V14.01,2013-09-10 21:05:00,
2013-09-10 16:10:00,85.3,73.1,29.95,SSE,161,10.0,13.0,67,0.00,,SKC,0.01,VWS V14.01,2013-09-10 21:10:00,
2013-09-10 16:15:00,85.2,73.0,29.95,SSE,160,0.0,13.0,67,0.00,,SKC,0.01,VWS V14.01,2013-09-10 21:15:00,
2013-09-10 16:20:00,85.2,73.4,29.94,SSE,166,1.0,10.0,68,0.00,,SKC,0.01,VWS V14.01,2013-09-10 21:20:00,
2013-09-10 16:25:00,85.4,74.1,29.94,SSE,166,6.0,10.0,69,0.00,,SKC,0.01,VWS V14.01,2013-09-10 21:25:00,
2013-09-10 16:30:00,85.8,74.5,29.95,SSE,165,0.0,7.0,69,0.00,,SKC,0.01,VWS V14.01,2013-09-10 21:30:00,
2013-09-10 16:35:00,85.3,72.7,29.96,ESE,109,8.0,16.0,66,0.00,,SKC,0.01,VWS V14.01,2013-09-10 21:35:00,
2013-09-10 16:40:00,83.7,73.3,29.97,ESE,108,5.0,17.0,71,0.00,,SKC,0.01,VWS V14.01,2013-09-10 21:40:00,
2013-09-10 16:45:00,81.3,73.8,29.97,SE,144,3.0,17.0,78,0.00,,SKC,0.01,VWS V14.01,2013-09-10 21:45:00,
2013-09-10 16:50:00,78.9,72.9,29.97,ESE,118,4.0,9.0,82,0.02,,SKC,0.03,VWS V14.01,2013-09-10 21:50:00,
2013-09-10 16:55:00,77.2,72.0,29.97,SE,130,3.0,9.0,84,0.03,,SKC,0.04,VWS V14.01,2013-09-10 21:55:00,
2013-09-10 17:00:00,76.2,72.1,29.97,SE,129,0.0,4.0,87,0.04,,SKC,0.05,VWS V14.01,2013-09-10 22:00:00,
2013-09-10 17:05:00,75.7,71.9,29.96,SE,128,0.0,4.0,88,0.05,,SKC,0.06,VWS V14.01,2013-09-10 22:05:00,
2013-09-10 17:10:00,75.5,72.0,29.96,SE,128,0.0,3.0,89,0.05,,SKC,0.06,VWS V14.01,2013-09-10 22:10:00,
2013-09-10 17:15:00,75.4,72.3,29.96,SE,128,0.0,3.0,90,0.05,,SKC,0.06,VWS V14.01,2013-09-10 22:15:00,
2013-09-10 17:20:00,75.4,72.3,29.96,SE,128,0.0,4.0,90,0.06,,SKC,0.07,VWS V14.01,2013-09-10 22:20:00,
2013-09-10 17:25:00,75.3,72.5,29.96,SE,127,0.0,4.0,91,0.06,,SKC,0.07,VWS V14.01,2013-09-10 22:25:00,
2013-09-10 17:30:00,75.4,72.6,29.97,SE,127,0.0,2.0,91,0.06,,SKC,0.07,VWS V14.01,2013-09-10 22:30:00,
2013-09-10 17:35:00,75.5,72.7,29.97,SE,127,0.0,2.0,91,0.06,,SKC,0.07,VWS V14.01,2013-09-10 22:35:00,
2013-09-10 17:40:00,75.6,72.8,29.97,SE,127,0.0,0.0,91,0.06,,SKC,0.07,VWS V14.01,2013-09-10 22:40:00,
2013-09-10 17:45:00,75.7,73.2,29.96,SE,127,0.0,0.0,92,0.06,,SKC,0.07,VWS V14.01,2013-09-10 22:45:00,
2013-09-10 17:50:00,76.0,73.5,29.97,SE,127,0.0,0.0,92,0.05,,SKC,0.07,VWS V14.01,2013-09-10 22:50:00,
2013-09-10 17:55:00,76.3,73.8,29.97,SE,127,0.0,0.0,92,0.05,,SKC,0.07,VWS V14.01,2013-09-10 22:55:00,
2013-09-10 18:00:00,76.5,73.7,29.97,SE,127,0.0,0.0,91,0.03,,SKC,0.07,VWS V14.01,2013-09-10 23:00:00,
2013-09-10 18:05:00,76.8,74.0,29.97,SE,127,0.0,1.0,91,0.03,,SKC,0.07,VWS V14.01,2013-09-10 23:05:00,
2013-09-10 18:10:00,77.0,74.2,29.97,SE,127,0.0,1.0,91,0.01,,SKC,0.07,VWS V14.01,2013-09-10 23:10:00,
2013-09-10 18:15:00,77.2,74.0,29.97,SE,127,0.0,4.0,90,0.01,,SKC,0.07,VWS V14.01,2013-09-10 23:15:00,
2013-09-10 18:20:00,77.5,74.3,29.98,SE,126,0.0,1.0,90,0.01,,SKC,0.07,VWS V14.01,2013-09-10 23:20:00,
2013-09-10 18:25:00,77.7,74.2,29.97,ESE,120,0.0,3.0,89,0.01,,SKC,0.07,VWS V14.01,2013-09-10 23:25:00,
2013-09-10 18:30:00,77.7,73.9,29.97,ESE,119,1.0,9.0,88,0.00,,SKC,0.07,VWS V14.01,2013-09-10 23:30:00,
2013-09-10 18:35:00,77.7,73.9,29.97,ESE,119,0.0,9.0,88,0.00,,SKC,0.07,VWS V14.01,2013-09-10 23:35:00,
2013-09-10 18:40:00,77.6,73.8,29.98,ESE,120,0.0,10.0,88,0.00,,SKC,0.07,VWS V14.01,2013-09-10 23:40:00,
2013-09-10 18:45:00,77.5,73.3,29.98,ESE,119,0.0,10.0,87,0.00,,SKC,0.07,VWS V14.01,2013-09-10 23:45:00,
2013-09-10 18:50:00,77.4,73.2,29.98,ESE,118,0.0,5.0,87,0.00,,SKC,0.07,VWS V14.01,2013-09-10 23:50:00,
2013-09-10 18:55:00,77.3,73.1,29.98,ESE,117,8.0,8.0,87,0.00,,SKC,0.07,VWS V14.01,2013-09-10 23:55:00,
2013-09-10 19:00:00,77.3,72.8,29.98,ESE,120,1.0,1.0,86,0.00,,SKC,0.07,VWS V14.01,2013-09-11 00:00:00,
2013-09-10 19:05:00,77.3,73.1,29.98,ESE,119,0.0,7.0,87,0.00,,SKC,0.07,VWS V14.01,2013-09-11 00:05:00,
2013-09-10 19:10:00,77.3,73.1,29.97,ESE,118,0.0,9.0,87,0.00,,SKC,0.07,VWS V14.01,2013-09-11 00:10:00,
2013-09-10 19:15:00,77.3,73.5,29.97,ESE,118,0.0,9.0,88,0.00,,SKC,0.07,VWS V14.01,2013-09-11 00:15:00,
2013-09-10 19:20:00,77.3,73.5,29.97,ESE,118,0.0,0.0,88,0.00,,SKC,0.07,VWS V14.01,2013-09-11 00:20:00,
2013-09-10 19:25:00,77.2,73.4,29.97,ESE,118,0.0,0.0,88,0.00,,SKC,0.07,VWS V14.01,2013-09-11 00:25:00,
2013-09-10 19:30:00,77.0,73.2,29.97,ESE,118,0.0,0.0,88,0.00,,SKC,0.07,VWS V14.01,2013-09-11 00:30:00,
2013-09-10 19:35:00,76.9,73.1,29.98,ESE,118,0.0,1.0,88,0.00,,SKC,0.07,VWS V14.01,2013-09-11 00:35:00,
2013-09-10 19:40:00,76.7,72.5,29.98,ESE,118,0.0,5.0,87,0.00,,SKC,0.07,VWS V14.01,2013-09-11 00:40:00,
2013-09-10 19:45:00,76.5,72.3,29.98,ESE,118,0.0,5.0,87,0.00,,SKC,0.07,VWS V14.01,2013-09-11 00:45:00,
2013-09-10 19:50:00,76.4,72.2,29.98,ESE,118,0.0,0.0,87,0.00,,SKC,0.07,VWS V14.01,2013-09-11 00:50:00,
2013-09-10 19:55:00,76.3,72.2,29.97,ESE,118,0.0,0.0,87,0.00,,SKC,0.07,VWS V14.01,2013-09-11 00:55:00,
2013-09-10 20:00:00,76.1,71.9,29.98,ESE,118,0.0,0.0,87,0.00,,SKC,0.07,VWS V14.01,2013-09-11 01:00:00,
2013-09-10 20:05:00,76.0,71.9,29.98,ESE,118,0.0,0.0,87,0.00,,SKC,0.07,VWS V14.01,2013-09-11 01:05:00,
2013-09-10 20:10:00,75.8,72.0,29.98,ESE,118,0.0,0.0,88,0.00,,SKC,0.07,VWS V14.01,2013-09-11 01:10:00,
2013-09-10 20:15:00,75.6,71.5,29.98,ESE,118,0.0,0.0,87,0.00,,SKC,0.07,VWS V14.01,2013-09-11 01:15:00,
2013-09-10 20:20:00,75.5,71.7,29.98,ESE,118,0.0,0.0,88,0.00,,SKC,0.07,VWS V14.01,2013-09-11 01:20:00,
2013-09-10 20:25:00,75.3,71.2,29.98,ESE,118,0.0,0.0,87,0.00,,SKC,0.07,VWS V14.01,2013-09-11 01:25:00,
2013-09-10 20:30:00,75.1,71.0,29.98,ESE,118,0.0,0.0,87,0.00,,SKC,0.07,VWS V14.01,2013-09-11 01:30:00,
2013-09-10 20:35:00,74.9,70.8,29.98,ESE,118,0.0,0.0,87,0.00,,SKC,0.07,VWS V14.01,2013-09-11 01:35:00,
2013-09-10 20:40:00,74.7,70.6,29.98,ESE,118,0.0,0.0,87,0.00,,SKC,0.07,VWS V14.01,2013-09-11 01:40:00,
2013-09-10 20:45:00,74.5,70.4,29.99,ESE,118,0.0,0.0,87,0.00,,SKC,0.07,VWS V14.01,2013-09-11 01:45:00,
2013-09-10 20:50:00,74.3,70.2,29.99,ESE,118,0.0,0.0,87,0.00,,SKC,0.07,VWS V14.01,2013-09-11 01:50:00,
2013-09-10 20:55:00,74.2,70.1,29.99,ESE,118,0.0,0.0,87,0.00,,SKC,0.07,VWS V14.01,2013-09-11 01:55:00,
2013-09-10 21:00:00,74.1,70.0,29.99,ESE,118,0.0,0.0,87,0.00,,SKC,0.07,VWS V14.01,2013-09-11 02:00:00,
2013-09-10 21:05:00,74.0,69.9,29.99,ESE,118,0.0,0.0,87,0.00,,SKC,0.07,VWS V14.01,2013-09-11 02:05:00,
2013-09-10 21:10:00,73.9,69.8,29.99,ESE,118,0.0,0.0,87,0.00,,SKC,0.07,VWS V14.01,2013-09-11 02:10:00,
2013-09-10 21:15:00,73.8,69.7,29.99,ESE,118,0.0,0.0,87,0.00,,SKC,0.07,VWS V14.01,2013-09-11 02:15:00,
2013-09-10 21:20:00,73.7,69.9,30.00,ESE,118,0.0,0.0,88,0.00,,SKC,0.07,VWS V14.01,2013-09-11 02:20:00,
2013-09-10 21:25:00,73.5,69.7,30.00,ESE,118,0.0,0.0,88,0.00,,SKC,0.07,VWS V14.01,2013-09-11 02:25:00,
2013-09-10 21:30:00,73.4,69.6,30.00,ESE,118,0.0,0.0,88,0.00,,SKC,0.07,VWS V14.01,2013-09-11 02:30:00,
2013-09-10 21:35:00,73.3,69.5,30.00,ESE,118,0.0,0.0,88,0.00,,SKC,0.07,VWS V14.01,2013-09-11 02:35:00,
2013-09-10 21:40:00,73.2,69.4,30.00,ESE,118,0.0,0.0,88,0.00,,SKC,0.07,VWS V14.01,2013-09-11 02:40:00,
2013-09-10 21:45:00,73.1,69.7,30.00,ESE,118,0.0,0.0,89,0.00,,SKC,0.07,VWS V14.01,2013-09-11 02:45:00,
2013-09-10 21:50:00,73.0,69.6,30.00,ESE,118,0.0,0.0,89,0.00,,SKC,0.07,VWS V14.01,2013-09-11 02:50:00,
2013-09-10 21:55:00,72.9,69.5,30.00,ESE,118,0.0,0.0,89,0.00,,SKC,0.07,VWS V14.01,2013-09-11 02:55:00,
2013-09-10 22:00:00,72.8,69.4,30.00,ESE,118,0.0,0.0,89,0.00,,SKC,0.07,VWS V14.01,2013-09-11 03:00:00,
2013-09-10 22:05:00,72.7,69.6,30.00,ESE,118,0.0,0.0,90,0.00,,SKC,0.07,VWS V14.01,2013-09-11 03:05:00,
2013-09-10 22:10:00,72.6,69.5,30.00,ESE,118,0.0,0.0,90,0.00,,SKC,0.07,VWS V14.01,2013-09-11 03:10:00,
2013-09-10 22:15:00,72.5,69.4,30.01,ESE,118,0.0,0.0,90,0.00,,SKC,0.07,VWS V14.01,2013-09-11 03:15:00,
2013-09-10 22:20:00,72.5,69.4,30.01,ESE,118,0.0,0.0,90,0.00,,SKC,0.07,VWS V14.01,2013-09-11 03:20:00,
2013-09-10 22:25:00,72.5,69.4,30.01,ESE,118,0.0,0.0,90,0.00,,SKC,0.07,VWS V14.01,2013-09-11 03:25:00,
2013-09-10 22:30:00,72.4,69.3,30.01,ESE,118,0.0,0.0,90,0.00,,SKC,0.07,VWS V14.01,2013-09-11 03:30:00,
2013-09-10 22:35:00,72.4,69.6,30.01,ESE,118,0.0,0.0,91,0.00,,SKC,0.07,VWS V14.01,2013-09-11 03:35:00,
2013-09-10 22:40:00,72.4,69.6,30.00,ESE,118,0.0,0.0,91,0.00,,SKC,0.07,VWS V14.01,2013-09-11 03:40:00,
2013-09-10 22:45:00,72.5,69.7,30.01,ESE,118,0.0,0.0,91,0.00,,SKC,0.07,VWS V14.01,2013-09-11 03:45:00,
2013-09-10 22:50:00,72.6,70.2,30.01,ESE,118,0.0,0.0,92,0.00,,SKC,0.07,VWS V14.01,2013-09-11 03:50:00,
2013-09-10 22:55:00,72.9,70.4,30.01,ESE,118,0.0,0.0,92,0.00,,SKC,0.07,VWS V14.01,2013-09-11 03:55:00,
2013-09-10 23:00:00,73.1,70.3,30.01,ESE,118,0.0,0.0,91,0.00,,SKC,0.07,VWS V14.01,2013-09-11 04:00:00,
2013-09-10 23:01:00,73.2,70.4,30.01,ESE,118,0.0,0.0,91,0.00,,SKC,0.07,VWS V14.01,2013-09-11 04:01:00,
2013-09-10 23:02:00,73.2,70.4,30.01,ESE,118,0.0,0.0,91,0.00,,SKC,0.07,VWS V14.01,2013-09-11 04:02:00,
2013-09-10 23:07:00,73.3,70.5,30.01,ESE,118,0.0,0.0,91,0.00,,SKC,0.07,VWS V14.01,2013-09-11 04:07:00,
2013-09-10 23:10:00,73.3,70.5,30.01,ESE,118,0.0,0.0,91,0.00,,SKC,0.07,VWS V14.01,2013-09-11 04:10:00,
2013-09-10 23:12:00,73.4,70.6,30.01,ESE,118,0.0,0.0,91,0.00,,SKC,0.07,VWS V14.01,2013-09-11 04:12:00,
2013-09-10 23:17:00,73.4,70.6,30.01,ESE,118,0.0,0.0,91,0.00,,SKC,0.07,VWS V14.01,2013-09-11 04:17:00,
2013-09-10 23:20:00,73.4,70.6,30.01,ESE,118,0.0,0.0,91,0.00,,SKC,0.07,VWS V14.01,2013-09-11 04:20:00,
2013-09-10 23:22:00,73.5,70.7,30.01,ESE,118,0.0,0.0,91,0.00,,SKC,0.07,VWS V14.01,2013-09-11 04:22:00,
2013-09-10 23:27:00,73.5,70.7,30.01,ESE,118,0.0,0.0,91,0.00,,SKC,0.07,VWS V14.01,2013-09-11 04:27:00,
2013-09-10 23:30:00,73.5,70.7,30.01,ESE,118,0.0,0.0,91,0.00,,SKC,0.07,VWS V14.01,2013-09-11 04:30:00,
2013-09-10 23:32:00,73.6,70.8,30.02,ESE,118,0.0,1.0,91,0.00,,SKC,0.07,VWS V14.01,2013-09-11 04:32:00,
2013-09-10 23:37:00,73.6,70.8,30.01,ESE,118,0.0,0.0,91,0.00,,SKC,0.07,VWS V14.01,2013-09-11 04:37:00,
2013-09-10 23:40:00,73.6,70.8,30.02,ESE,118,0.0,1.0,91,0.00,,SKC,0.07,VWS V14.01,2013-09-11 04:40:00,
2013-09-10 23:42:00,73.7,70.9,30.02,ESE,118,0.0,0.0,91,0.00,,SKC,0.07,VWS V14.01,2013-09-11 04:42:00,
2013-09-10 23:47:00,73.7,70.9,30.02,ESE,118,0.0,0.0,91,0.00,,SKC,0.07,VWS V14.01,2013-09-11 04:47:00,
2013-09-10 23:50:00,73.7,70.9,30.02,ESE,118,0.0,0.0,91,0.00,,SKC,0.07,VWS V14.01,2013-09-11 04:50:00,
2013-09-10 23:52:00,73.7,70.9,30.01,ESE,118,0.0,0.0,91,0.00,,SKC,0.07,VWS V14.01,2013-09-11 04:52:00,
2013-09-10 23:57:00,73.7,70.9,30.01,ESE,118,0.0,0.0,91,0.00,,SKC,0.00,VWS V14.01,2013-09-11 04:57:00,